TimeMDT,TemperatureF,Dew PointF,Humidity,Sea Level PressureIn,VisibilityMPH,Wind Direction,Wind SpeedMPH,Gust SpeedMPH,PrecipitationIn,Events,Conditions,WindDirDegrees,DateUTC
12:53 AM,75.0,18.0,12,29.87,8.0,WSW,6.9,-,N/A,,Clear,250,2013-08-17 06:53:00
1:53 AM,73.9,19.0,13,29.86,9.0,West,11.5,-,N/A,,Clear,260,2013-08-17 07:53:00
2:53 AM,72.0,19.9,14,29.86,10.0,WSW,10.4,-,N/A,,Clear,240,2013-08-17 08:53:00
3:53 AM,68.0,19.0,15,29.88,9.0,East,4.6,-,N/A,,Clear,100,2013-08-17 09:53:00
4:53 AM,66.9,21.9,18,29.90,10.0,Calm,Calm,-,N/A,,Clear,0,2013-08-17 10:53:00
5:53 AM,66.0,21.0,18,29.90,9.0,Calm,Calm,-,N/A,,Clear,0,2013-08-17 11:53:00
6:53 AM,66.9,21.0,17,29.92,9.0,SE,3.5,-,N/A,,Clear,140,2013-08-17 12:53:00
7:53 AM,64.0,27.0,25,29.95,10.0,Calm,Calm,-,N/A,,Clear,0,2013-08-17 13:53:00
8:53 AM,71.1,25.0,18,29.96,10.0,Calm,Calm,-,N/A,,Clear,0,2013-08-17 14:53:00
9:53 AM,79.0,33.1,19,29.94,10.0,North,4.6,-,N/A,,Clear,10,2013-08-17 15:53:00
10:53 AM,84.0,26.1,12,29.93,10.0,Calm,Calm,-,N/A,,Clear,0,2013-08-17 16:53:00
11:53 AM,88.0,26.1,11,29.89,10.0,SE,3.5,-,N/A,,Clear,140,2013-08-17 17:53:00
12:53 PM,93.0,23.0,8,29.87,10.0,Variable,3.5,-,N/A,,Clear,0,2013-08-17 18:53:00
1:53 PM,91.0,21.0,8,29.85,10.0,Variable,5.8,17.3,N/A,,Clear,0,2013-08-17 19:53:00
2:53 PM,93.9,21.0,7,29.82,10.0,NE,6.9,-,N/A,,Clear,40,2013-08-17 20:53:00
3:53 PM,93.9,21.0,7,29.81,10.0,SSE,4.6,-,N/A,,Clear,160,2013-08-17 21:53:00
4:53 PM,93.9,24.1,8,29.79,10.0,NE,8.1,-,N/A,,Clear,40,2013-08-17 22:53:00
5:53 PM,90.0,25.0,10,29.79,10.0,North,3.5,-,N/A,,Clear,350,2013-08-17 23:53:00
6:53 PM,88.0,24.1,10,29.79,10.0,North,3.5,-,N/A,,Clear,10,2013-08-18 00:53:00
7:53 PM,84.9,26.1,12,29.82,10.0,South,3.5,-,N/A,,Clear,190,2013-08-18 01:53:00
8:53 PM,80.1,28.9,15,29.83,10.0,WSW,12.7,-,N/A,,Clear,240,2013-08-18 02:53:00
9:53 PM,77.0,34.0,21,29.84,10.0,NE,8.1,-,N/A,,Clear,40,2013-08-18 03:53:00
10:53 PM,75.9,34.0,22,29.85,10.0,WNW,6.9,-,N/A,,Clear,300,2013-08-18 04:53:00
11:53 PM,70.0,36.0,29,29.86,10.0,ESE,8.1,-,N/A,,Clear,120,2013-08-18 05:53:00